Statesville, NC

12:29 PM EDT on April 19, 2018 (GMT -0400)
Statesville Municipal

Weather History for KSVH - March, 2014

Change the Weather History Date:

Sunday, March 30, 2014

  Actual Average (KHKY) Record (KHKY)
Temperature  
Mean Temperature 48 °F -  
Max Temperature 57 °F 66 °F 85 °F (1985)
Min Temperature 39 °F 45 °F 21 °F (1964)
Degree Days  
Heating Degree Days 18    
Moisture  
Dew Point 28 °F    
Average Humidity 51    
Maximum Humidity 69    
Minimum Humidity 30    
Precipitation  
Precipitation 0.00 in - - ()
Sea Level Pressure  
Sea Level Pressure 29.87 in    
Wind  
Wind Speed 11 mph (WNW)    
Max Wind Speed 22 mph    
Max Gust Speed 31 mph    
Visibility 10 miles    
Events Rain    
Averages and records for this station are not official NWS values.
T = Trace of Precipitation, MM = Missing Value Source: NWS Daily Summary

Daily Weather History Graph

Daily Weather History Graph

Search for Another Location

Airport or City:

Astronomy

Mar. 30, 2014 Rise Set
Actual Time 7:13 AM EDT 7:43 PM EDT
Civil Twilight 6:47 AM EDT 8:09 PM EDT
Nautical Twilight 6:17 AM EDT 8:39 PM EDT
Astronomical Twilight 5:46 AM EDT 9:10 PM EDT
Moon 6:57 AM EDT (3/30) 7:53 PM EDT (3/30)
Length of Visible Light 13h 22m
Length of Day
12h 30m
Waning Crescent, 0% of the Moon is Illuminated
Mar 30
Waning Crescent
Mar 30
New
Apr 7
First Quarter
Apr 15
Full
Apr 22
Last Quarter

Hourly Weather History & Observations

Time (EDT) Temp. Windchill Dew Point Humidity Pressure Visibility Wind Dir Wind Speed Gust Speed Precip Events Conditions
12:15 AM 48.4 °F - 37.9 °F 67% 29.69 in 10.0 mi WNW 12.7 mph 24.2 mph N/A   Overcast
12:35 AM 46.8 °F - 36.1 °F 67% 29.70 in 10.0 mi WNW 16.1 mph 25.3 mph N/A   Overcast
12:55 AM 46.0 °F 39.9 °F 34.7 °F 65% 29.70 in 10.0 mi NW 13.8 mph 28.8 mph N/A   Mostly Cloudy
1:15 AM 45.5 °F 39.6 °F 34.5 °F 65% 29.71 in 10.0 mi WNW 12.7 mph 20.7 mph N/A   Overcast
1:35 AM 44.4 °F 37.5 °F 32.0 °F 62% 29.71 in 10.0 mi WNW 15.0 mph 23.0 mph N/A   Overcast
1:55 AM 43.7 °F 37.7 °F 31.3 °F 62% 29.72 in 10.0 mi WNW 11.5 mph 24.2 mph N/A   Overcast
2:15 AM 43.2 °F 38.4 °F 31.1 °F 62% 29.72 in 10.0 mi WNW 8.1 mph - N/A   Overcast
2:35 AM 43.0 °F 38.8 °F 30.4 °F 61% 29.72 in 10.0 mi WNW 6.9 mph - N/A   Overcast
2:55 AM 42.8 °F 35.4 °F 29.8 °F 60% 29.73 in 10.0 mi WNW 15.0 mph 20.7 mph N/A   Overcast
3:15 AM 42.3 °F 36.3 °F 29.5 °F 61% 29.73 in 10.0 mi West 10.4 mph 17.3 mph N/A   Overcast
3:35 AM 41.9 °F 36.3 °F 29.8 °F 62% 29.74 in 10.0 mi West 9.2 mph - N/A   Overcast
3:55 AM 41.5 °F 35.4 °F 29.8 °F 63% 29.73 in 10.0 mi West 10.4 mph - N/A   Overcast
4:15 AM 41.4 °F 35.7 °F 29.3 °F 62% 29.73 in 10.0 mi WNW 9.2 mph 16.1 mph N/A   Overcast
4:35 AM 41.0 °F 35.2 °F 29.7 °F 64% 29.73 in 10.0 mi West 9.2 mph - N/A   Overcast
4:55 AM 41.0 °F 35.2 °F 29.1 °F 63% 29.73 in 10.0 mi West 9.2 mph - N/A   Overcast
5:15 AM 40.8 °F 34.1 °F 28.4 °F 61% 29.73 in 10.0 mi West 11.5 mph 16.1 mph N/A   Overcast
5:35 AM 40.5 °F 33.6 °F 28.9 °F 64% 29.74 in 10.0 mi WNW 11.5 mph 17.3 mph N/A Rain Light Rain
5:55 AM 39.6 °F 33.5 °F 30.0 °F 69% 29.75 in 10.0 mi West 9.2 mph - N/A Rain Light Rain
6:15 AM 40.1 °F 33.6 °F 29.7 °F 66% 29.75 in 10.0 mi West 10.4 mph 16.1 mph N/A Rain Light Rain
6:35 AM 40.1 °F 33.6 °F 29.8 °F 67% 29.76 in 10.0 mi West 10.4 mph - N/A Rain Light Rain
6:55 AM 40.3 °F 34.4 °F 29.5 °F 65% 29.77 in 10.0 mi West 9.2 mph - N/A   Overcast
7:15 AM 40.3 °F 34.4 °F 29.7 °F 66% 29.78 in 10.0 mi West 9.2 mph - N/A   Overcast
7:35 AM 40.6 °F 34.8 °F 29.1 °F 64% 29.79 in 10.0 mi WNW 9.2 mph - N/A   Overcast
7:55 AM 41.0 °F 37.1 °F 28.9 °F 62% 29.80 in 10.0 mi West 5.8 mph - N/A   Overcast
8:15 AM 41.2 °F 36.0 °F 29.5 °F 63% 29.82 in 10.0 mi West 8.1 mph - N/A   Overcast
8:35 AM 41.9 °F 39.0 °F 30.0 °F 63% 29.83 in 10.0 mi West 4.6 mph - N/A   Overcast
8:55 AM 43.0 °F 39.5 °F 29.7 °F 59% 29.84 in 10.0 mi West 5.8 mph - N/A   Overcast
9:15 AM 43.7 °F 39.1 °F 29.5 °F 57% 29.85 in 10.0 mi WNW 8.1 mph 17.3 mph N/A   Overcast
9:35 AM 43.9 °F 39.9 °F 30.6 °F 59% 29.86 in 10.0 mi WNW 6.9 mph 17.3 mph N/A   Overcast
9:55 AM 44.6 °F 40.7 °F 31.3 °F 60% 29.86 in 10.0 mi WNW 6.9 mph - N/A   Overcast
10:15 AM 46.0 °F 40.6 °F 31.6 °F 57% 29.87 in 10.0 mi WNW 11.5 mph 17.3 mph N/A   Overcast
10:35 AM 45.7 °F 39.1 °F 30.9 °F 56% 29.88 in 10.0 mi NW 15.0 mph 29.9 mph N/A   Overcast
10:55 AM 46.4 °F 40.1 °F 31.5 °F 56% 29.88 in 10.0 mi NW 15.0 mph 21.9 mph N/A   Overcast
11:15 AM 47.1 °F - 31.1 °F 54% 29.89 in 10.0 mi NW 13.8 mph 24.2 mph N/A   Overcast
11:35 AM 47.5 °F - 31.5 °F 54% 29.90 in 10.0 mi NNW 17.3 mph 25.3 mph N/A   Overcast
11:55 AM 49.1 °F - 32.4 °F 53% 29.91 in 10.0 mi NW 18.4 mph 26.5 mph N/A   Overcast
12:15 PM 49.6 °F - 32.0 °F 51% 29.91 in 10.0 mi NW 15.0 mph 28.8 mph N/A   Mostly Cloudy
12:35 PM 48.6 °F - 31.8 °F 52% 29.92 in 10.0 mi NW 17.3 mph 28.8 mph N/A   Overcast
12:55 PM 48.7 °F - 32.0 °F 52% 29.92 in 10.0 mi NW 12.7 mph 28.8 mph N/A   Mostly Cloudy
1:15 PM 50.2 °F - 32.4 °F 50% 29.92 in 10.0 mi NW 16.1 mph 21.9 mph N/A   Scattered Clouds
1:35 PM 49.8 °F - 31.6 °F 50% 29.93 in 10.0 mi WNW 11.5 mph 25.3 mph N/A   Clear
1:55 PM 49.1 °F - 30.7 °F 49% 29.93 in 10.0 mi NW 9.2 mph 24.2 mph N/A   Clear
2:15 PM 48.4 °F - 29.3 °F 48% 29.92 in 10.0 mi NW 11.5 mph 20.7 mph N/A   Clear
2:35 PM 48.7 °F - 29.5 °F 47% 29.92 in 10.0 mi NW 12.7 mph 21.9 mph N/A   Clear
2:55 PM 49.5 °F - 28.2 °F 44% 29.91 in 10.0 mi NW 10.4 mph 25.3 mph N/A   Clear
3:15 PM 50.0 °F - 27.7 °F 42% 29.90 in 10.0 mi NW 21.9 mph 28.8 mph N/A   Clear
3:35 PM 50.9 °F - 27.3 °F 40% 29.91 in 10.0 mi WNW 19.6 mph 27.6 mph N/A   Clear
3:55 PM 53.1 °F - 28.2 °F 38% 29.91 in 10.0 mi NW 13.8 mph 26.5 mph N/A   Clear
4:15 PM 55.4 °F - 27.7 °F 35% 29.91 in 10.0 mi NW 16.1 mph 31.1 mph N/A   Clear
4:35 PM 56.3 °F - 27.0 °F 32% 29.92 in 10.0 mi NNW 16.1 mph 25.3 mph N/A   Clear
4:55 PM 56.1 °F - 26.4 °F 32% 29.92 in 10.0 mi WNW 15.0 mph 26.5 mph N/A   Clear
5:15 PM 55.4 °F - 26.2 °F 33% 29.94 in 10.0 mi WNW 16.1 mph 27.6 mph N/A   Clear
5:35 PM 55.0 °F - 25.3 °F 32% 29.94 in 10.0 mi WNW 11.5 mph 24.2 mph N/A   Clear
5:55 PM 54.9 °F - 24.4 °F 31% 29.95 in 10.0 mi NNW 16.1 mph 26.5 mph N/A   Clear
6:15 PM 54.5 °F - 24.3 °F 31% 29.96 in 10.0 mi WNW 15.0 mph 26.5 mph N/A   Clear
6:35 PM 54.0 °F - 24.1 °F 31% 29.96 in 10.0 mi WNW 8.1 mph - N/A   Clear
6:55 PM 53.4 °F - 22.5 °F 30% 29.96 in 10.0 mi NW 10.4 mph 20.7 mph N/A   Clear
7:15 PM 52.2 °F - 23.2 °F 32% 29.96 in 10.0 mi NW 16.1 mph 23.0 mph N/A   Clear
7:35 PM 51.3 °F - 22.5 °F 32% 29.96 in 10.0 mi NW 16.1 mph 20.7 mph N/A   Clear
7:55 PM 50.0 °F - 23.0 °F 35% 29.96 in 10.0 mi NW 9.2 mph 18.4 mph N/A   Clear
8:15 PM 49.8 °F - 22.6 °F 34% 29.97 in 10.0 mi NW 3.5 mph - N/A   Clear
8:35 PM 48.4 °F - 22.3 °F 36% 29.98 in 10.0 mi Calm Calm - N/A   Clear
8:55 PM 47.5 °F - 22.5 °F 37% 29.98 in 10.0 mi Calm Calm - N/A   Clear
9:15 PM 48.6 °F - 21.9 °F 35% 29.98 in 10.0 mi NW 4.6 mph - N/A   Clear
9:35 PM 44.6 °F 40.2 °F 23.9 °F 44% 29.98 in 10.0 mi West 8.1 mph - N/A   Clear
9:55 PM 43.0 °F 37.7 °F 24.6 °F 48% 29.99 in 10.0 mi West 9.2 mph - N/A   Clear
10:15 PM 44.6 °F 41.4 °F 24.8 °F 46% 30.00 in 10.0 mi WNW 5.8 mph - N/A   Clear
10:35 PM 46.8 °F - 23.9 °F 41% 30.00 in 10.0 mi WNW 5.8 mph - N/A   Clear
10:55 PM 46.4 °F 42.9 °F 23.9 °F 41% 30.00 in 10.0 mi WNW 6.9 mph - N/A   Clear
11:15 PM 46.8 °F - 23.7 °F 40% 30.00 in 10.0 mi NW 6.9 mph - N/A   Clear
11:35 PM 46.8 °F - 23.5 °F 40% 30.00 in 10.0 mi NW 5.8 mph - N/A   Clear
11:55 PM 44.4 °F 40.5 °F 24.4 °F 45% 30.01 in 10.0 mi West 6.9 mph - N/A   Clear